Regional Weather Roundup
Issued by NWS

Home | Current Version | Previous Version | Text Only | Print | Product List | Glossary On
Versions: 1 2 3 4 5 6 7 8 9 10 11 12 13 14 15 16 17 18 19 20 21 22 23 24 25 26 27 28 29 30 31 32 33 34 35 36 37 38 39 40 41 42 43 44 45 46 47 48 49 50
000
ASUS43 KMKX 251020
RWRWI

WISCONSIN REGIONAL WEATHER ROUNDUP
NATIONAL WEATHER SERVICE MILWAUKEE/SULLIVAN WI
400 AM CST SUN FEB 25 2018

NOTE: "FAIR" INDICATES FEW OR NO CLOUDS BELOW 12,000 FEET WITH NO
SIGNIFICANT WEATHER AND/OR OBSTRUCTIONS TO VISIBILITY.

WIZ001-002-006>008-014>016-023>028-251100-
NORTHWEST WISCONSIN

CITY           SKY/WX    TMP DP  RH WIND       PRES   REMARKS
SUPERIOR ARPT  CLOUDY    27  24  87 W14G21    29.33R WCI  16
ASHLAND        CLOUDY    28  25  88 SW16      29.28S WCI  16
HAYWARD        LGT SNOW  27  24  89 W15G21    29.33R FOG     WCI  15
SIREN          LGT SNOW  25  23  91 W15G22    29.42R WCI  13
CUMBERLAND     LGT SNOW  23  21  93 W18G26    29.41R WCI   9
RICE LAKE      LGT SNOW  25  22  90 SW15      29.44R WCI  12
CHETEK         LGT SNOW  24  21  88 SW10G17   29.43R WCI  13
LADYSMITH      LGT SNOW  28  25  89 SW14G23   29.39R WCI  16
EAU CLAIRE     CLOUDY    21  17  84 W18G32    29.49R FOG     WCI   6
MENOMONIE      CLOUDY    21  17  85 SW16G22   29.51R WCI   7
NEW RICHMOND   CLOUDY    19  15  85 W15G21    29.50R WCI   5
OSCEOLA        CLOUDY    20  20 100 W16G24    29.52R WCI   6
$$

WIZ003>005-009-010-017-018-251100-
NORTH CENTRAL WISCONSIN

CITY           SKY/WX    TMP DP  RH WIND       PRES   REMARKS
MANITOWISH WTR FLURRIES  29  29 100 SW14G20   29.24S WCI  18
ARBOR VITAE    FLURRIES  32  30  94 W10G20    29.25S WCI  23
WOODRUFF       FLURRIES  32  30  94 W10G20    29.25S WCI  23
RHINELANDER    LGT SNOW  31  28  89 W16G30    29.27S FOG     WCI  20
EAGLE RIVER    LGT SNOW  30  29  97 SW16      29.24S WCI  18
LAND O LAKES   LGT SNOW  29  28  97 SW5       29.24F WCI  24
PHILLIPS       LGT SNOW  27  25  92 SW16G26   29.31R WCI  14
TOMAHAWK       LGT SNOW  29  27  92 W9G17     29.31R WCI  21
MEDFORD        MIX PCPN  23  20  89 W20G28    29.37R WCI   8
MERRILL        MIX PCPN  27  25  91 W20G26    29.36R WCI  14
$$

WIZ029-030-035-036-043>047-251100-
CENTRAL WISCONSIN

CITY           SKY/WX    TMP DP  RH WIND       PRES   REMARKS
WAUSAU         MIX PCPN  26  23  88 W18G35    29.37R FOG     WCI  13
MOSINEE        CLOUDY    27  27 100 SW23      29.40R FOG     WCI  12
MARSHFIELD     CLOUDY    23  20  88 W22G32    29.42R FOG     WCI   8
STEVENS POINT  CLOUDY    25  24  96 W14G20    29.44R WCI  13
WAUPACA        MOCLDY    32  26  77 W24G37    29.44R WCI  19
WAUTOMA        CLOUDY    28  23  81 SW29G38   29.48R WCI  12
WISC RAPIDS    CLOUDY    24  19  81 MISG      29.49R
CAMP DOUGLAS   CLOUDY    25  20  84 W18G25    29.54R WCI  11
$$

WIZ011>013-019>022-031-037>040-048>050-251100-
NORTHEAST WISCONSIN

CITY           SKY/WX    TMP DP  RH WIND       PRES   REMARKS
ANTIGO         MIX PCPN  30  28  94 W21       29.30S WCI  17
SHAWANO        FLURRIES  34  32  92 SW18G29   29.35R WCI  23
OCONTO         CLOUDY    34  32  92 W13G23    29.33R WCI  25
STURGEON BAY   CLOUDY    35  33  92 SW23G32   29.31R WCI  23
GREEN BAY      CLOUDY    35  28  75 W26G36    29.37R WCI  22
MANITOWOC      CLOUDY    36  30  80 W22G29    29.40R WCI  24
APPLETON       CLOUDY    32  30  93 SW24G37   29.39R WCI  19
CLINTONVILLE   CLOUDY    31  26  80 W21G35    29.41R WCI  19
OSHKOSH        CLOUDY    32  25  75 W17G32    29.44R WCI  21
$$

WIZ032>034-041-042-053>061-251100-
SOUTHWEST WISCONSIN

CITY           SKY/WX    TMP DP  RH WIND       PRES   REMARKS
LA CROSSE      CLOUDY    25  18  74 SW14G28   29.61R WCI  13
SPARTA         CLOUDY    24  20  86 W17G26    29.58R WCI  10
VIROQUA        CLOUDY    23  21  93 W18G28    29.59R WCI   8
BOSCOBEL       CLOUDY    28  21  75 W9G26     29.66R WCI  19
PRAIRIE DU CHI CLOUDY    27  18  71 W18G31    29.69R WCI  13
PLATTEVILLE    CLOUDY    30  25  83 W23G36    29.66R WCI  16
$$

WIZ056-057-062-063-064-067-068-251100-
SOUTH CENTRAL WISCONSIN

CITY           SKY/WX    TMP DP  RH WIND       PRES   REMARKS
REEDSBURG      CLOUDY    25  20  81 W18G26    29.60R WCI  11
BARABOO/DELLS  CLOUDY    25  20  81 W18G31    29.56R WCI  12
LONE ROCK      CLOUDY    28  21  75 W21G36    29.64R WCI  15
MINERAL POINT  CLOUDY    30  28  93 W30G38    29.61R WCI  15
MADISON        CLOUDY    28  21  75 W16G31    29.60R WCI  16
MIDDLETON      CLOUDY    30  23  77 W26G40    29.59R WCI  15
WATERTOWN      CLOUDY    31  26  83 SW18G30   29.55R WCI  19
MONROE         CLOUDY    30  25  80 W41G47    29.63R WCI  13
JANESVILLE     CLOUDY    30  30 100 W20G38    29.64R WCI  18
$$

WIZ051-052-058>065-066-070>072-251100-
SOUTHEAST WISCONSIN

CITY           SKY/WX    TMP DP  RH WIND       PRES   REMARKS
MILWAUKEE      MOCLDY    35  27  72 W28G45    29.54R WCI  22
WAUKESHA       CLOUDY    32  27  80 SW22G35   29.55R WCI  19
MILWAUKEE/TIMM MOCLDY    32  27  80 W18G35    29.53R WCI  20
RACINE         CLOUDY    34  27  75 W23G44    29.57R WCI  22
BURLINGTON     CLOUDY    32  25  74 W23G36    29.59R WCI  19
KENOSHA        CLOUDY    34  27  75 W32G45    29.57R WCI  20
FOND DU LAC    CLOUDY    32  23  69 W22G39    29.48R WCI  19
SHEBOYGAN      CLOUDY    34  30  85 W29G37    29.44R WCI  20
WEST BEND      CLOUDY    32  28  86 W29G41    29.48R WCI  18
JUNEAU         CLOUDY    30  25  80 SW25G37   29.53R WCI  16
$$

LSZ147-162-251100-
LAKE SUPERIOR

STATION/POSITION TIME  TEMP    WIND        PRES    WAVE
                       AIR SEA DIR/SP/G            HT/PER
                 (UTC) (F)     (DEG/KT/KT) (MB)    (FT/S)
DEVILS ISLAND    1000   28     190/  3/  4  991.7F
SAXON HARBOR     0940   28     200/  2/  3  991.2F
$$

LMZ867-665-643>646-251100-
LAKE MICHIGAN

STATION/POSITION TIME  TEMP    WIND        PRES    WAVE
                       AIR SEA DIR/SP/G            HT/PER
                 (UTC) (F)     (DEG/KT/KT) (MB)    (FT/S)
NORTHPORT PIER   0840   32                  993.6F
KEWAUNEE LAKESHO 1000   36     260/ 13/ 21  993.7
SHEBOYGAN LAKESH 1000   36     250/ 24/ 29  997.0R
PORT WASHINGTON  0930   36     260/ 16/ 31  999.0R
KENOSHA   LAKESH 1000   34     250/ 29/ 42 1002.7
$$

TC  - TEMPERATURE IN CELSIUS
VSB - VISIBILITY IN STATUTE MILES
WCI - WIND CHILL INDEX
HX  - HEAT INDEX





USA.gov is the U.S. government's official web portal to all federal, state and local government web resources and services.